Dewpoint
32 26 25 25 25 21 19 18 23 25 26 37 37 38 44 55 56 57 59 59 59 60 61 63 64 65 66 68 69 71 71 73 71 70 69 68 66 68 69 71 73 74 74 75
31 24 24 25 27 24 20 18 21 25 24 27 30 37 42 53 56 57 58 59 59 59 60 62 64 65 66 68 69 71 72 74 73 71 71 69 69 68 70 72 73 74 74 75
21 21 24 27 27 25 23 17 18 21 23 27 32 29 39 50 54 56 58 59 60 59 60 62 63 64 65 68 70 72 73 74 73 73 71 71 71 71 71 71 72 73 74 75
19 22 24 25 24 26 20 21 19 21 22 21 30 24 38 41 52 55 56 58 59 60 61 62 63 64 64 68 69 72 73 74 73 75 72 73 68 67 68 70 71 72 74 74
22 23 26 26 23 27 21 23 21 19 22 23 23 25 30 44 48 52 54 57 58 59 60 62 63 65 65 66 67 69 73 74 74 75 74 72 72 69 69 70 74 75 75 74
19 23 24 27 27 28 26 25 24 24 21 20 24 23 26 31 40 46 53 55 58 59 60 62 63 65 65 66 66 68 72 73 74 74 74 74 73 73 69 71 70 70 70 71
22 21 23 24 25 27 26 22 19 18 18 17 24 24 27 30 36 36 47 53 56 58 60 60 62 64 66 67 68 68 71 72 73 73 73 74 74 74 74 73 70 71 69 70
19 18 20 22 23 22 25 20 14 16 11 12 25 22 24 29 30 39 41 47 54 56 57 58 61 64 65 66 68 68 70 71 72 72 73 74 74 71 71 72 69 69 69 70
19 18 21 21 20 23 23 22 19 14 18 15 15 21 25 29 29 35 40 43 49 54 56 58 60 62 63 65 67 69 70 71 72 71 73 73 74 74 72 74 74 70 73 70
25 22 21 20 20 21 22 22 18 18 16 15 15 21 19 32 29 33 37 40 45 49 53 56 59 61 62 63 66 68 69 70 71 71 72 71 72 73 73 74 74 73 73 73
29 23 21 23 21 19 19 21 20 18 17 11 9 11 27 32 39 36 34 38 41 46 49 51 56 59 62 62 64 66 68 69 70 71 72 72 72 72 73 73 74 74 74 74
34 23 23 22 22 21 21 21 21 17 24 19 15 11 23 28 29 36 34 37 41 46 50 50 51 55 58 62 62 64 66 67 69 70 71 72 72 73 72 73 73 74 74 74
33 28 24 23 21 21 21 22 22 21 21 25 15 14 22 26 27 32 34 38 42 45 49 51 50 53 58 60 62 62 64 65 66 70 70 71 71 72 72 73 73 74 74 75
35 29 28 21 25 27 26 23 23 21 20 22 20 19 23 26 29 32 35 38 39 45 50 52 54 57 58 60 63 63 63 64 65 67 69 71 72 72 72 73 74 74 74 74
32 27 28 27 25 25 26 24 24 24 24 24 22 23 25 28 30 32 33 38 42 42 46 52 55 60 62 63 64 64 64 66 66 68 68 70 72 73 73 73 74 74 74 74
29 24 27 23 22 22 25 25 25 24 24 24 24 24 27 30 33 35 35 38 41 39 43 48 55 58 60 62 64 64 65 65 68 69 68 71 72 73 73 73 74 74 74 74
28 24 22 18 24 23 22 23 24 24 25 23 23 26 27 28 30 34 35 38 42 41 43 46 48 54 59 60 63 63 65 66 68 69 70 71 72 73 73 73 74 74 74 74
27 31 26 15 21 17 21 27 27 28 24 24 25 26 28 32 36 38 39 38 40 41 42 46 41 49 59 56 54 62 64 68 68 69 70 71 71 72 73 73 73 74 74 74
29 26 22 15 16 19 19 22 33 38 31 42 35 28 26 28 31 38 37 38 42 43 45 46 42 47 59 59 62 64 65 67 68 69 70 71 71 71 72 72 73 73 73 73
28 29 23 21 13 14 25 28 38 48 33 49 51 49 40 29 27 27 39 38 37 38 41 46 46 51 54 60 59 63 63 67 68 69 70 71 72 72 72 73 73 74 73 73
26 26 23 20 19 18 25 35 49 38 35 52 53 54 54 52 40 43 43 43 45 47 49 50 51 57 60 62 61 64 65 66 68 68 69 72 73 73 73 74 74 74 73 73
23 27 26 23 20 15 27 27 30 46 51 51 53 55 56 57 57 57 52 47 53 59 58 52 57 59 62 64 65 67 69 68 69 70 71 73 74 71 71 74 73 74 74 74
26 27 28 26 20 32 35 39 40 49 50 51 55 56 57 57 57 59 51 61 64 66 67 68 68 67 66 66 67 68 69 69 70 71 72 73 73 73 74 74 73 72 74 72
31 36 34 33 30 34 33 38 41 52 53 55 56 57 57 58 60 57 62 67 68 68 68 69 68 68 68 69 70 70 70 70 70 71 72 73 73 73 74 73 72 72 71 71
31 34 33 33 35 38 39 39 43 47 52 55 56 56 57 61 62 64 66 66 65 64 62 62 61 60 61 63 64 66 70 72 69 69 69 70 70 71 73 73 73 71 73 71
35 33 33 29 36 38 41 42 46 53 51 56 56 58 59 62 62 64 64 64 64 65 66 66 65 65 64 63 63 64 65 67 71 71 68 65 65 67 69 72 69 53 51 55
Lifted_Index
10 7 6 6 7 6 4 3 2 2 2 2 2 1 -1 -3 -4 -4 -5 -5 -3 -2 -2 -2 -1 -2 -2 -2 -3 -3 -3 -3 -3 -2 -2 -1 -1 -2 -3 -4 -4 -5 -5 -5
8 7 6 7 7 6 5 3 2 2 3 3 2 1 -1 -3 -4 -4 -5 -5 -4 -3 -2 -1 -2 -2 -2 -3 -3 -4 -4 -4 -3 -3 -2 -2 -2 -2 -3 -4 -4 -5 -5 -5
7 7 8 8 7 6 5 4 3 2 3 3 3 2 1 -1 -3 -4 -4 -4 -4 -3 -2 -2 -2 -2 -2 -3 -3 -4 -4 -4 -4 -3 -3 -3 -2 -3 -3 -4 -4 -5 -5 -5
7 8 8 7 6 6 5 5 4 3 2 3 3 2 2 0 -2 -3 -4 -4 -3 -3 -2 -2 -2 -2 -2 -2 -3 -3 -4 -4 -4 -4 -3 -3 -3 -2 -3 -4 -4 -5 -5 -5
8 8 8 7 7 6 6 6 5 4 3 3 3 3 2 1 -0 -2 -3 -3 -3 -3 -2 -2 -2 -2 -2 -2 -2 -2 -3 -3 -4 -4 -4 -3 -3 -3 -3 -3 -4 -5 -5 -5
9 9 9 8 8 8 8 7 5 4 3 3 3 3 3 3 1 -1 -2 -3 -3 -3 -3 -2 -2 -2 -2 -2 -2 -2 -3 -3 -3 -4 -4 -4 -4 -3 -3 -4 -4 -4 -5 -5
8 9 10 10 9 9 9 7 4 2 2 3 4 4 4 4 3 1 -1 -2 -3 -3 -3 -3 -3 -3 -3 -2 -2 -2 -2 -3 -3 -3 -4 -4 -4 -4 -4 -4 -4 -4 -4 -4
5 6 9 10 10 9 8 7 5 2 2 4 5 5 5 5 4 2 1 -1 -2 -3 -3 -3 -3 -3 -3 -3 -2 -2 -2 -2 -3 -3 -3 -4 -4 -4 -4 -4 -4 -4 -4 -4
4 6 8 10 9 9 8 7 6 4 3 3 4 5 5 5 4 3 2 0 -1 -2 -2 -2 -3 -3 -3 -3 -3 -3 -3 -3 -3 -3 -4 -4 -4 -4 -4 -4 -4 -4 -4 -5
7 7 8 9 9 9 8 8 7 6 3 2 2 4 5 5 4 3 2 1 0 -0 -1 -2 -2 -3 -3 -3 -3 -3 -3 -3 -3 -4 -4 -4 -5 -5 -5 -5 -5 -5 -5 -5
9 8 7 8 8 9 8 8 7 5 3 2 1 3 5 5 5 4 3 2 1 1 0 -1 -2 -3 -3 -3 -3 -3 -3 -3 -4 -4 -4 -4 -5 -5 -5 -5 -5 -5 -6 -6
9 8 7 7 8 9 8 8 7 6 4 3 2 4 6 7 5 4 4 3 2 2 1 0 -0 -1 -2 -3 -3 -3 -3 -4 -4 -4 -4 -4 -5 -5 -5 -5 -6 -6 -6 -6
9 8 6 6 7 8 8 8 8 7 6 4 4 5 7 7 6 6 5 4 4 3 2 1 0 -0 -2 -2 -2 -2 -3 -3 -4 -4 -4 -5 -5 -5 -6 -6 -6 -5 -6 -6
9 8 6 5 6 8 8 9 9 8 7 5 4 6 7 8 7 6 6 5 4 3 2 1 1 -0 -1 -2 -2 -2 -2 -3 -3 -4 -4 -5 -6 -6 -6 -6 -6 -6 -6 -5
9 8 7 6 7 7 8 8 8 8 7 6 6 7 8 9 8 7 6 6 5 4 3 2 1 -0 -1 -2 -2 -2 -2 -3 -3 -4 -4 -5 -6 -6 -6 -6 -6 -6 -6 -5
9 8 7 7 7 7 7 7 8 8 8 8 7 7 9 10 9 8 7 7 6 5 4 3 2 0 -1 -1 -2 -2 -2 -3 -3 -4 -4 -5 -6 -7 -7 -6 -7 -6 -6 -6
9 9 7 7 6 6 6 7 8 8 8 8 7 8 9 10 9 9 8 7 7 6 5 4 4 2 1 -0 -1 -2 -2 -3 -3 -4 -4 -5 -6 -6 -7 -7 -7 -7 -7 -7
10 9 8 7 6 6 7 8 8 8 8 8 8 9 9 9 9 9 8 8 7 6 6 6 5 4 3 1 -0 -2 -3 -3 -4 -4 -5 -5 -6 -6 -6 -7 -7 -7 -7 -7
11 10 9 7 6 6 8 9 8 7 7 7 8 8 9 9 9 8 7 7 6 6 6 6 6 5 4 2 0 -1 -2 -3 -4 -4 -5 -5 -5 -6 -6 -7 -7 -7 -7 -7
10 10 9 8 7 7 9 9 7 6 6 6 5 6 7 7 8 7 7 6 6 6 6 6 6 5 4 2 1 -0 -2 -3 -4 -5 -5 -5 -5 -6 -7 -7 -7 -7 -7 -7
8 9 9 9 8 8 10 9 7 6 6 5 4 4 4 5 6 6 6 5 5 4 5 5 5 4 2 1 1 -0 -2 -3 -4 -5 -5 -6 -6 -6 -7 -7 -7 -7 -8 -8
7 7 8 9 9 10 11 10 8 6 5 5 3 3 3 3 3 4 4 4 2 1 1 2 2 1 1 0 -1 -1 -2 -3 -4 -5 -5 -6 -7 -7 -7 -7 -7 -7 -8 -8
6 7 7 9 10 11 11 10 8 6 5 4 3 2 2 2 1 1 1 0 -2 -3 -2 -2 -2 -1 -1 -1 -2 -3 -3 -3 -4 -5 -6 -7 -7 -7 -7 -7 -7 -7 -8 -8
5 6 7 8 10 11 11 10 8 6 4 3 2 2 1 0 -0 -1 -2 -4 -4 -4 -4 -4 -3 -3 -2 -2 -2 -3 -3 -4 -5 -5 -6 -7 -8 -8 -8 -8 -8 -8 -8 -8
4 4 6 8 10 10 10 10 8 6 4 3 2 0 -1 -2 -2 -3 -4 -5 -5 -4 -3 -3 -2 -2 -1 -1 -1 -2 -3 -4 -5 -6 -6 -6 -7 -7 -8 -8 -8 -8 -8 -8
3 4 6 9 9 10 10 8 7 5 4 3 1 -1 -3 -3 -3 -4 -4 -4 -4 -3 -3 -2 -2 -1 -0 0 1 -0 -2 -4 -6 -6 -6 -6 -6 -7 -8 -8 -8 -8 -8 -8